Wind_Speed
8 9 9 9 9 9 9 9 10 10 10 10 9 9 9 9 10 10 11 11 12 12 13 14 14 14 14 15 15 16 16 16 16 16 16 16 15 15 15 15 15 15 15
8 8 8 9 9 9 10 10 11 10 11 10 10 9 9 10 10 11 11 11 11 12 12 12 13 13 14 15 16 16 16 16 16 16 16 15 15 15 14 14 15 14 14
8 8 8 8 8 9 9 10 10 11 10 10 10 10 10 10 11 11 11 11 11 12 12 12 12 13 14 15 15 16 16 16 16 15 15 15 14 15 15 15 15 15 14
8 8 8 8 9 9 9 9 9 10 10 11 11 11 11 11 11 11 12 12 12 12 12 13 13 14 14 15 15 15 15 15 15 15 15 15 15 16 16 15 15 15 14
9 8 8 9 9 9 9 9 10 10 10 10 11 11 11 11 11 12 12 13 12 13 13 13 13 14 14 14 15 15 15 15 15 15 15 15 15 14 14 14 14 14 14
9 9 9 10 10 10 10 10 11 11 11 11 11 11 11 12 12 12 12 13 13 13 13 13 14 13 14 14 14 14 14 15 14 14 14 14 14 14 15 14 14 14 14
9 9 10 10 11 11 11 11 11 11 11 11 12 12 12 13 13 14 13 13 13 13 14 13 14 14 14 14 14 13 13 13 13 13 13 13 14 14 15 15 15 15 14
10 10 10 10 11 11 11 12 12 12 12 13 13 13 13 14 14 15 15 15 14 14 13 13 13 13 14 13 13 13 13 13 13 13 13 13 14 14 14 14 14 14 14
11 11 10 10 11 11 12 12 13 13 13 13 14 14 14 14 14 15 15 15 15 15 14 14 13 13 13 13 13 13 13 13 14 13 13 13 12 12 13 13 13 14 14
12 12 12 11 11 12 12 13 13 13 13 13 14 14 14 15 15 15 16 16 15 15 15 14 14 14 14 14 14 14 14 13 13 13 13 13 13 12 13 14 14 15 15
13 13 13 13 13 13 13 13 13 14 14 13 13 14 14 15 15 15 16 15 15 15 15 15 15 15 14 14 14 14 13 14 14 14 14 14 14 14 13 13 14 15 16
14 14 14 14 14 14 14 14 14 14 14 14 14 15 16 16 16 16 15 15 15 15 15 15 14 15 15 14 14 13 12 13 14 14 15 15 15 15 14 13 14 15 16
15 15 16 15 15 15 15 15 15 15 15 15 16 16 17 17 17 17 16 16 16 15 15 15 14 14 15 15 14 13 13 13 13 15 15 15 15 15 15 15 14 15 16
16 16 16 16 16 16 15 16 15 16 16 17 17 17 17 17 17 17 17 17 17 16 15 15 15 14 14 14 14 14 13 14 14 15 15 15 16 16 16 16 16 16 15
17 17 17 17 17 17 16 16 16 17 18 18 18 18 18 19 18 18 18 17 17 17 15 15 14 14 14 14 14 14 14 15 15 15 16 16 17 17 17 16 16 16 16
18 18 17 17 17 18 17 17 17 17 18 19 19 19 18 18 18 17 17 17 17 17 17 16 15 15 15 15 15 15 15 15 15 16 16 16 16 16 16 16 16 16 16
20 19 18 18 17 17 17 17 17 17 18 18 17 18 18 18 17 17 17 16 17 17 17 17 16 16 16 16 16 16 16 16 16 16 16 16 16 16 16 16 16 16 16
21 21 20 19 19 18 18 18 18 18 18 17 17 18 18 18 17 17 17 17 17 18 18 17 17 17 17 17 17 16 16 16 16 16 16 16 15 15 15 15 16 16 16
21 21 21 20 20 19 19 19 18 18 18 18 18 18 18 18 18 18 18 18 18 18 18 19 18 18 18 18 18 17 17 17 17 16 15 15 15 15 15 15 15 15 16
22 22 21 21 21 20 20 19 19 19 19 20 20 19 19 19 19 19 19 19 19 18 18 18 18 18 18 18 18 18 18 18 17 17 16 16 16 16 16 15 15 15 16
22 22 22 21 21 21 20 21 20 20 21 21 21 21 21 21 20 20 19 19 19 18 18 18 18 18 18 18 18 18 18 17 17 17 17 17 17 17 17 16 15 16 16
22 22 22 22 23 22 22 21 21 22 22 22 22 22 22 21 21 20 20 20 19 18 18 17 17 18 18 18 18 18 18 18 17 17 17 17 17 17 16 16 16 16 16
23 23 23 23 24 24 23 23 22 22 23 23 22 22 22 21 22 21 21 20 20 20 19 19 19 18 18 18 19 18 18 18 18 19 19 18 18 17 17 17 18 18 18
23 24 24 24 25 25 25 24 23 22 22 22 22 22 22 22 22 22 22 22 21 21 21 21 20 20 20 19 20 20 20 19 19 20 20 19 19 19 18 18 18 18 19
24 25 25 26 26 26 26 25 24 23 22 23 23 23 23 23 23 23 23 23 23 23 23 23 23 23 22 22 21 21 21 21 21 21 21 21 20 20 20 19 19 19 19
25 26 26 27 27 27 26 26 25 24 24 24 24 25 25 24 24 24 24 25 25 25 25 25 25 24 24 24 23 23 23 22 22 22 22 22 22 21 21 20 20 20 20
Wind_Direction
276 277 275 272 272 272 270 268 271 270 273 277 278 278 279 276 276 278 277 277 276 277 277 276 275 274 274 274 275 275 275 276 274 272 271 272 271 270 268 270 268 264 261
279 279 274 272 272 274 276 277 276 278 280 280 280 280 280 278 278 276 278 279 281 281 282 281 279 277 275 276 279 278 276 277 276 274 272 270 269 268 267 266 267 264 261
275 275 273 272 272 275 276 277 278 279 279 278 279 280 279 275 274 277 279 280 283 283 282 283 281 280 278 278 279 280 278 277 277 276 273 271 269 266 264 264 264 263 263
269 269 271 275 277 279 282 283 282 281 279 277 277 280 280 277 276 277 279 282 284 285 286 285 284 281 280 280 280 280 278 276 274 273 270 269 264 264 263 261 260 259 259
269 266 268 273 276 279 282 284 284 282 279 278 278 279 279 278 278 279 280 282 284 285 287 287 286 285 281 283 285 284 281 277 273 272 270 268 265 263 260 259 257 257 259
271 266 268 270 272 275 277 279 281 282 280 279 280 280 281 279 280 280 281 283 284 285 287 287 286 284 283 284 286 287 282 277 274 275 274 271 265 263 261 259 258 256 257
276 273 272 270 270 273 275 276 278 279 280 281 282 283 282 282 282 281 282 283 284 286 287 286 285 285 284 283 284 285 284 281 278 273 271 268 265 263 260 260 260 257 259
282 281 276 274 272 274 274 274 275 278 280 281 283 284 284 283 282 280 281 282 282 284 286 285 284 285 285 283 284 284 283 283 279 275 273 271 266 260 255 257 259 256 258
284 282 279 274 273 275 276 275 275 278 281 282 283 285 285 283 283 282 282 280 281 281 282 283 283 284 283 281 280 281 282 281 278 276 273 270 269 264 262 260 256 257 258
281 282 281 280 276 277 279 277 278 277 280 281 282 283 284 284 282 282 283 283 283 281 281 282 283 283 282 279 279 279 278 277 277 275 270 266 265 269 270 266 264 263 262
278 280 282 282 280 280 281 279 278 279 280 282 283 285 286 286 286 285 284 283 283 281 280 280 280 282 279 277 276 278 277 276 275 273 269 267 269 273 272 269 266 264 263
276 277 280 283 284 282 281 281 278 278 280 282 283 285 286 287 287 286 286 284 281 282 282 280 280 281 280 277 273 273 276 273 271 271 270 272 272 272 271 267 266 264 264
276 277 279 281 284 284 282 279 276 276 279 282 284 286 287 287 287 285 284 283 282 279 280 280 280 281 280 278 275 275 278 274 272 273 274 276 276 272 269 268 267 264 263
275 276 278 280 281 284 284 282 279 276 278 281 284 286 287 287 286 284 282 281 281 279 278 279 279 281 283 279 277 277 278 278 279 278 276 275 275 274 270 267 267 266 266
274 275 277 279 280 280 282 282 283 281 281 281 285 286 285 284 283 282 281 280 280 279 277 277 279 283 283 279 280 279 279 279 280 280 278 278 278 275 271 266 266 266 268
276 276 277 277 277 278 279 281 284 285 285 284 284 285 285 285 284 284 282 282 280 278 276 275 280 283 283 279 280 280 279 281 284 284 282 279 277 273 270 266 265 264 265
277 278 276 276 276 276 278 280 284 284 285 285 285 286 285 285 285 285 283 282 280 279 277 276 278 280 281 280 279 279 278 282 285 284 282 278 276 274 271 269 267 265 264
277 277 275 273 273 274 276 278 281 284 283 283 283 285 285 284 284 284 282 281 279 278 277 276 277 278 279 280 280 280 279 280 281 282 281 278 275 273 272 271 268 267 265
276 275 274 272 271 272 274 275 278 281 281 281 281 282 282 283 283 281 281 280 280 278 276 275 276 276 277 279 279 280 278 278 277 278 278 278 276 273 271 270 269 269 268
275 273 273 272 270 270 271 272 276 278 278 280 279 279 279 279 279 279 279 280 279 278 276 275 274 275 276 278 278 278 277 276 274 275 276 276 276 273 271 269 269 270 268
274 272 270 270 269 269 270 271 273 274 277 278 278 277 278 277 275 275 276 278 277 276 276 276 274 274 276 278 279 278 275 273 274 273 274 274 275 273 271 270 272 274 270
273 271 269 269 268 268 269 271 273 275 277 277 277 276 276 276 275 273 272 273 274 274 273 274 274 274 275 277 278 278 275 272 272 271 272 273 273 272 269 269 273 274 272
272 272 269 268 267 267 268 271 274 276 275 275 275 274 274 274 273 273 271 272 272 272 271 272 273 274 274 275 276 275 273 272 271 269 269 270 269 268 266 268 272 273 273
273 272 270 268 267 267 268 268 272 274 273 273 273 273 272 272 272 271 270 270 270 271 271 272 273 275 275 276 276 273 271 269 270 269 269 269 268 266 266 268 271 273 273
275 273 271 270 267 267 267 267 268 272 271 270 271 271 271 271 271 270 269 269 269 271 272 273 274 274 274 276 275 274 273 271 268 267 268 267 267 266 267 268 267 271 271
276 275 273 271 268 266 266 267 268 271 270 269 270 271 271 270 270 269 270 270 271 271 272 273 274 274 274 275 274 274 273 272 269 266 266 266 266 265 265 267 269 271 270
Height
5851 5851 5850 5850 5850 5851 5851 5850 5850 5850 5850 5850 5850 5849 5849 5849 5848 5848 5847 5847 5846 5846 5845 5844 5843 5843 5842 5842 5841 5841 5841 5840 5840 5839 5839 5839 5839 5838 5838 5838 5838 5838 5838
5849 5849 5849 5848 5848 5848 5848 5848 5848 5848 5848 5847 5847 5847 5846 5846 5846 5845 5845 5844 5843 5843 5842 5841 5840 5840 5839 5838 5838 5837 5837 5837 5836 5836 5835 5835 5835 5835 5835 5835 5835 5835 5834
5847 5846 5846 5846 5846 5846 5846 5846 5846 5845 5845 5845 5845 5844 5844 5843 5843 5842 5842 5841 5841 5840 5839 5838 5837 5836 5836 5835 5834 5833 5833 5833 5833 5832 5832 5831 5831 5831 5831 5831 5831 5831 5831
5845 5844 5844 5844 5844 5844 5844 5843 5843 5843 5843 5843 5842 5842 5841 5841 5840 5840 5839 5838 5838 5837 5836 5835 5834 5833 5832 5831 5831 5830 5830 5829 5829 5828 5828 5828 5828 5828 5828 5828 5828 5828 5828
5842 5842 5842 5842 5842 5842 5841 5841 5841 5841 5840 5840 5840 5839 5839 5838 5837 5837 5836 5835 5835 5834 5833 5832 5831 5830 5829 5828 5827 5827 5826 5826 5825 5825 5825 5824 5824 5824 5824 5825 5825 5825 5825
5840 5839 5840 5839 5839 5839 5839 5839 5838 5838 5838 5837 5837 5836 5836 5835 5834 5834 5833 5832 5831 5831 5830 5829 5828 5827 5826 5825 5824 5823 5823 5822 5822 5821 5821 5821 5821 5820 5821 5821 5821 5822 5822
5837 5837 5837 5836 5836 5836 5836 5836 5836 5835 5835 5835 5834 5834 5833 5832 5831 5831 5830 5829 5828 5827 5826 5825 5825 5824 5823 5822 5821 5820 5819 5818 5818 5818 5817 5817 5817 5816 5817 5817 5817 5818 5818
5834 5834 5834 5833 5833 5833 5833 5833 5833 5832 5832 5832 5831 5830 5830 5830 5828 5827 5826 5826 5825 5824 5823 5822 5821 5820 5819 5818 5817 5817 5816 5815 5815 5814 5813 5813 5812 5812 5813 5813 5814 5814 5815
5831 5831 5830 5830 5830 5830 5830 5830 5829 5829 5829 5828 5828 5827 5826 5826 5825 5824 5822 5822 5821 5820 5819 5818 5817 5816 5815 5815 5814 5814 5813 5812 5811 5811 5810 5809 5808 5808 5809 5809 5810 5810 5811
5828 5827 5827 5827 5827 5827 5826 5826 5826 5825 5825 5825 5824 5823 5823 5822 5821 5820 5819 5817 5816 5815 5815 5814 5813 5812 5812 5811 5810 5810 5809 5808 5808 5807 5806 5806 5806 5805 5805 5805 5806 5807 5807
5824 5824 5824 5824 5823 5823 5823 5822 5822 5821 5821 5821 5820 5819 5818 5817 5816 5816 5815 5813 5812 5811 5810 5810 5809 5808 5808 5807 5806 5806 5805 5805 5804 5804 5803 5803 5802 5802 5802 5802 5802 5802 5803
5820 5820 5820 5819 5819 5818 5818 5818 5818 5817 5817 5816 5816 5815 5814 5813 5812 5811 5810 5809 5808 5807 5806 5806 5805 5804 5804 5803 5803 5802 5801 5801 5800 5800 5800 5799 5798 5798 5798 5798 5798 5798 5798
5816 5816 5816 5815 5815 5814 5814 5813 5813 5813 5813 5812 5811 5810 5809 5808 5807 5806 5805 5804 5804 5803 5802 5801 5801 5800 5799 5799 5799 5798 5798 5797 5797 5796 5795 5795 5794 5794 5793 5793 5793 5793 5794
5811 5811 5811 5811 5810 5810 5809 5809 5808 5808 5808 5807 5806 5805 5804 5803 5802 5801 5800 5800 5799 5798 5798 5797 5796 5796 5795 5795 5794 5794 5793 5793 5792 5792 5791 5790 5790 5789 5789 5788 5789 5789 5789
5806 5806 5806 5805 5805 5805 5804 5804 5803 5803 5802 5801 5801 5799 5798 5797 5796 5796 5795 5794 5794 5793 5793 5792 5792 5791 5791 5790 5789 5789 5789 5788 5788 5787 5786 5785 5784 5784 5784 5783 5784 5784 5784
5801 5801 5800 5800 5800 5800 5799 5799 5798 5797 5796 5796 5795 5794 5793 5792 5791 5790 5789 5789 5788 5788 5788 5788 5787 5786 5786 5785 5785 5784 5783 5783 5782 5781 5781 5780 5779 5779 5778 5778 5778 5779 5779
5795 5795 5795 5794 5794 5794 5794 5793 5792 5792 5790 5789 5789 5788 5787 5786 5785 5785 5784 5783 5783 5782 5782 5782 5781 5781 5781 5780 5780 5779 5778 5778 5777 5776 5775 5774 5774 5773 5773 5773 5773 5773 5773
5789 5789 5788 5788 5788 5788 5788 5787 5787 5786 5785 5784 5783 5782 5782 5781 5780 5779 5778 5778 5777 5777 5776 5776 5776 5776 5775 5775 5774 5774 5773 5772 5771 5770 5769 5769 5769 5768 5768 5768 5768 5768 5768
5783 5782 5782 5782 5782 5782 5781 5781 5780 5780 5779 5778 5777 5777 5776 5775 5774 5774 5773 5772 5771 5771 5770 5770 5770 5770 5769 5769 5768 5768 5767 5767 5766 5765 5764 5764 5764 5763 5763 5763 5763 5763 5763
5776 5775 5775 5775 5775 5775 5775 5774 5774 5774 5773 5773 5772 5771 5770 5769 5768 5768 5767 5766 5765 5765 5764 5764 5764 5764 5763 5763 5762 5762 5762 5761 5760 5760 5759 5759 5758 5758 5758 5758 5758 5758 5758
5769 5768 5768 5768 5768 5768 5768 5768 5768 5767 5767 5766 5765 5765 5764 5763 5762 5761 5761 5760 5760 5759 5759 5759 5758 5758 5757 5757 5757 5756 5756 5755 5755 5754 5754 5754 5753 5753 5753 5753 5753 5753 5753
5761 5761 5761 5761 5761 5761 5761 5760 5760 5760 5760 5759 5759 5758 5757 5757 5756 5755 5755 5755 5754 5754 5754 5753 5753 5752 5752 5751 5751 5750 5750 5750 5749 5750 5749 5748 5748 5748 5747 5748 5748 5748 5748
5754 5754 5754 5754 5754 5753 5753 5753 5753 5753 5752 5752 5752 5751 5751 5750 5749 5749 5749 5749 5748 5748 5748 5748 5747 5747 5746 5746 5745 5745 5744 5744 5743 5743 5743 5743 5743 5743 5742 5742 5742 5742 5742
5747 5747 5746 5746 5746 5746 5746 5746 5745 5745 5745 5744 5744 5744 5744 5743 5743 5742 5742 5742 5742 5742 5742 5742 5741 5741 5740 5740 5739 5738 5738 5738 5737 5737 5737 5737 5737 5737 5737 5737 5736 5736 5736
5740 5739 5739 5738 5738 5738 5738 5738 5738 5738 5737 5737 5737 5736 5736 5736 5736 5735 5735 5735 5735 5735 5735 5734 5734 5734 5733 5733 5732 5732 5731 5731 5731 5731 5731 5731 5731 5730 5731 5731 5730 5730 5730
5732 5731 5730 5730 5729 5729 5729 5730 5730 5730 5729 5730 5729 5729 5729 5728 5728 5728 5728 5728 5728 5727 5727 5727 5727 5726 5726 5725 5725 5725 5724 5724 5724 5724 5724 5724 5724 5724 5724 5724 5724 5724 5724